Regional Weather Roundup
Issued by NWS Grand Forks, ND

Home | Current Version | Previous Version | Graphics & Text | Print | Product List | Glossary On
Versions: 1 2 3 4 5 6 7 8 9 10 11 12 13 14 15 16 17 18 19 20 21 22 23 24 25 26 27 28 29 30 31 32 33 34 35 36 37 38 39 40 41 42 43 44 45 46 47 48 49 50
000
ASUS43 KFGF 262131
RWRFGF
PRAIRIE TO PINES  WEATHER ROUNDUP
NATIONAL WEATHER SERVICE EASTERN NORTH DAKOTA/GRAND FORKS ND
300 PM CST FRI DEC 26 2014

 **SATELLITE DATA USED TO AUGMENT SKY COVER AT AUTOMATED STATIONS**
 *****  WEATHER ACROSS EASTERN NORTH DAKOTA  *****

CITY           SKY/WX    TMP DP  RH WIND       PRES   REMARKS
GRAND FORKS    SUNNY     16   9  74 NW12      30.19R WCI   3
GRAND FRKS AFB NOT AVBL
GRAND FRKS NWS   N/A     14 N/A N/A NW6         N/A  WCI   5
DEVILS LAKE    MOSUNNY    9   1  72 NW13      30.16S WCI  -7
FARGO          CLOUDY    24  17  74 N12       30.16R WCI  13
WAHPETON ARPT  CLOUDY    25  19  80 N13       30.15R WCI  13
$$

 ***** WEATHER ACROSS CENTRAL AND WESTERN NORTH DAKOTA  *****

CITY           SKY/WX    TMP DP  RH WIND       PRES   REMARKS
BISMARCK       CLOUDY    18  11  74 N7        30.17R WCI   9
MINOT          SUNNY     12   5  73 N8        30.16S WCI   0
JAMESTOWN      SUNNY      9   3  77 NW16      30.17R WCI  -8
MINOT AFB      SUNNY     11   7  85 N9        30.16S WCI  -2
GARRISON         N/A     18   9  68 NW10      30.14F WCI   6
WILLISTON      CLOUDY    18  12  77 S5        30.14F WCI  11
DICKINSON      MOSUNNY   24  14  65 N5        30.08R WCI  18
HETTINGER      MOSUNNY   24  12  60 NW8       30.09S WCI  15
$$

 *****  OTHER AIRPORT OBSERVATIONS IN OUR AREA  *****

CITY           SKY/WX    TMP DP  RH WIND       PRES   REMARKS
WALHALLA         N/A      7   5  92 NW9       30.23R WCI  -7
GRAFTON AIRPOR NOT AVBL
VALLEY CITY AR MOCLDY    14  14 100 NW9       30.17R WCI   2
CANDO          FAIR       9   1  72 NW8       30.18R WCI  -4
CAVALIER APRT  CLOUDY     9   5  85 NW9       30.21S WCI  -5
GWINNER        CLOUDY    21  19  93 NW13      30.17R WCI   9
ROLLA          FAIR       5   1  85 N6        30.14S WCI  -6
 ***** THE ABOVE OBSERVATIONS ARE NON NWS ARE NOT QUALITY
       CONTROLLED AND MAY MIS-REPORT RAIN FOR SNOW...
$$

  *****  WEATHER ACROSS NORTHERN MINNESOTA  *****

CITY           SKY/WX    TMP DP  RH WIND       PRES   REMARKS
FLAG ISLAND    CLOUDY    16  10  79 N8        30.14R WCI   5
WARROAD        LGT SNOW  19  14  79 NW8       30.14R WCI   9
ROSEAU         FLURRIES  19  12  73 NW8       30.14S WCI   9
HALLOCK        LGT SNOW  12   9  85 NW13      30.19S WCI  -3
THF RVR FALLS  CLOUDY    18  14  86 NW9       30.16R WCI   6
BAUDETTE       CLOUDY    20  13  74 N12       30.11R WCI   8
WASKISH        FLURRIES  23  16  74 CALM      30.12R
CROOKSTON      FLURRIES  19  16  86 NW12      30.19R WCI   7
STEPHEN NDAWN    N/A     14  10  85 NW12        N/A  WCI   0
GREENBUSH NDAW   N/A     18  14  86 NW9         N/A  WCI   6
$$
  *****  WEATHER ACROSS CENTRAL AND WEST MINNESOTA  *****

CITY           SKY/WX    TMP DP  RH WIND       PRES   REMARKS
FOSSTON        CLOUDY    19  16  86 NW12      30.13R WCI   7
BEMIDJI        CLOUDY    23  15  73 NW6       30.10R WCI  16
PARK RAPIDS    CLOUDY    25  16  68 N8        30.09R WCI  16
ELBOW LAKE     CLOUDY    24  20  85 N12       30.10R WCI  13
WADENA         CLOUDY    25  19  80 N10       30.08S WCI  15
DETROIT LAKES  PTSUNNY   25  19  80 N6G18     30.11S WCI  18
MOORHEAD       CLOUDY    25  21  86 N10       30.17R WCI  15
FERGUS FALLS   CLOUDY    23  16  74 N13G21    30.15S WCI  11
MORRIS MN      PTSUNNY   27  21  80 N14       30.09R WCI  15
STAPLES        CLOUDY    25  18  74 N12       30.08R WCI  14
$$
  *****  WEATHER ELSEWHERE ACROSS MINNESOTA  *****

CITY           SKY/WX    TMP DP  RH WIND       PRES   REMARKS
DULUTH         FLURRIES  29  21  72 N7        30.03R WCI  22
INTRNTL FALLS  FLURRIES  22  16  78 N10       30.09R WCI  11
ELY            CLOUDY    27  23  86 NW6       30.04R WCI  20
CLOQUET        CLOUDY    28  21  74 NW5       30.04S WCI  23
WHEATON        CLOUDY    23  18  80 N13       30.16R WCI  11
BRAINERD       CLOUDY    27  19  72 N10       30.08R WCI  17
HIBBING        CLOUDY    28  18  66 N6        30.05R WCI  22
ALEXANDRIA     CLOUDY    25  20  81 N10       30.08R WCI  15
SAINT CLOUD    CLOUDY    32  23  69 N13       30.04S WCI  22
MINNEAPOLIS    CLOUDY    32  25  75 N13       30.03R WCI  22
$$

  *****  WEATHER ACROSS SOUTH DAKOTA  *****

CITY           SKY/WX    TMP DP  RH WIND       PRES   REMARKS
SIOUX FALLS    LGT SNOW  27  22  81 N14       30.04R WCI  16
BROOKINGS      NOT AVBL
WATERTOWN      CLOUDY    21  17  84 N17       30.06S WCI   7
HURON          CLOUDY    24  20  84 N17       30.11F WCI  11
SISSETON         N/A     23  19  85 NE16      30.13R WCI  10
ABERDEEN       CLOUDY    23  17  78 N14       30.15S WCI  11
MITCHELL       FRZ RAIN  25  22  88 N18       30.11R FOG     WCI  11
PIERRE         CLOUDY    21  16  81 N14       30.12S WCI   8
MOBRIDGE       CLOUDY    20  12  71 N7        30.14R WCI  11
RAPID CITY     CLOUDY    18  13  80 NE7       30.07S WCI   9
$$

  *****  SOME WEATHER IN NEARBY STATES *****

CITY           SKY/WX    TMP DP  RH WIND       PRES   REMARKS
GLASGOW MT     PTSUNNY   26  18  71 S3        30.07S
GREAT FALLS MT SUNNY     17  15  92 SW10      30.10F WCI   5
CHEYENNE WY    CLOUDY    14   7  73 N7        29.87S HAZE    WCI   4
SCOTTSBLUFF NE LGT SNOW  20  16  84 NE3       30.02S FOG
OMAHA NE       CLOUDY    33  30  88 N13       30.00R WCI  24
DES MOINES IA  CLOUDY    35  31  85 N7        29.96R FOG
DAVENPORT IA   MOSUNNY   51  35  54 S12       29.96R
CHICAGO IL     PTSUNNY   49  38  65 S10       29.98S
EAU CLAIRE WI  CLOUDY    34  28  79 N6        29.99R
LA CROSSE WI   PTSUNNY   41  32  70 NW8       29.96R
$$

  *****  SOME NATIONAL WEATHER *****

CITY           SKY/WX    TMP DP  RH WIND       PRES   REMARKS
LA GUARDIA NY  PTCLDY    49  28  44 W7        30.19R
RALEIGH NC     MOSUNNY   58  35  42 SW8       30.29R
ATLANTA GA     PTSUNNY   57  31  37 W3        30.27R
NEW ORLEANS LA PTSUNNY   66  54  65 E12       30.12S
OKLAHOMA CITY  PTSUNNY   61  45  55 S15       29.84S
ALBUQUERQUE NM PTSUNNY   34   9  35 W21G32    29.86S WCI  22
SALT LAKE CITY PTSUNNY   29  15  56 N16       30.04R WCI  17
LOS ANGELES CA SUNNY     60  15  17 SE5       30.05F
BOISE ID       SUNNY     35  25  66 NW17      30.19S WCI  25
SEATTLE WA     PTSUNNY   38  35  89 CALM      30.35F
$$

*** WEATHER ACROSS MANITOBA...SASKATCHEWAN AND ONTARIO ***
                ***ONTARIO***

CITY           SKY/WX    TMP DP  RH WIND       PRES   REMARKS
GERALDTON      FLURRIES  25  21  86 NW9       30.00R WCI  15
THUNDER BAY    MOCLDY    32  23  69 N5        30.04R
SIOUX LOOKOUT  LGT SNOW  18  14  86 NW8       30.06  WCI   7
TORONTO        MOCLDY    45  36  70 SW13      30.08S
BIG TROUT LK   CLOUDY     7   1  78 NW10      30.05R WCI  -8
PICKLE LAKE    FLURRIES  19  16  86 W8        30.00R WCI   9
DRYDEN         FLURRIES  14  10  85 NW9       30.08R WCI   2
KENORA         FLURRIES  10   7  85 NW12G17   30.12  WCI  -4
$$
                *** MANITOBA***

CITY           SKY/WX    TMP DP  RH WIND       PRES   REMARKS
BRANDON        MOSUNNY   -2  -9  71 W12       30.20  WCI -20
DAUPHIN        CLEAR     -8 -13  77 W9        30.22S WCI -25
ISLAND LAKE    PTCLDY    -6 -13  71 W7        30.14S WCI -20
PILOT MOUND      N/A     -2  -8  78 NW7         N/A  WCI -16
THE PAS        FLURRIES  -4  -9  77 SW9       30.16S WCI -20
THOMPSON       PTCLDY   -17 -24  70 W8        30.10S WCI -34
WINNIPEG       FLURRIES   7   3  85 NW12      30.23R WCI  -9
CHURCHILL      LGT SNOW  -8 -11  84 W10       30.02S WCI -26
GILLAM         CLEAR    -15 -22  70 W9        30.08S WCI -33
$$
                ***SASKATCHEWAN***

CITY           SKY/WX    TMP DP  RH WIND       PRES   REMARKS
ESTEVAN        PTSUNNY    5   0  78 NW2       30.14F
KINDERSLEY     CLOUDY    16  12  86 SW7       30.05  WCI   6
LLOYDMINSTER   LGT SNOW  10   7  85 W10       30.02F WCI  -3
PRINCE ALBERT  LGT SNOW   1  -2  85 CALM      30.09  VSB 1
REGINA         PTSUNNY    5   1  85 SE6       30.12F WCI  -6
YORKTON        SUNNY     -4  -9  77 SW7       30.16S WCI -18
N. BATTLEFORD  FLURRIES  12  10  92 W7        30.07F WCI   2
LA RONGE       PTCLDY    -9 -15  77 NE3       30.10
SASKATOON      PTSUNNY    9   3  78 S8        30.10F WCI  -4
SWIFT CURRENT  FLURRIES  14  12  92 W10G17    30.05R WCI   1
$$
NOTE: THESE ARE AUTOMATED STATIONS WITH LIMITED QUALITY CONTROL
      "FAIR" INDICATES FEW OR NO CLOUDS BELOW 12,000 FEET WITH NO
      SIGNIFICANT WEATHER AND/OR OBSTRUCTIONS TO VISIBILITY.
      SKY/WX - SKY CONDITION AND SIGNIFICANT WEATHER.
      TMP - AIR TEMPERATURE.    DP   - DEWPOINT TEMPERATURE.
      RH  - RELATIVE HUMIDITY.  PRES - PRESSURE.
      HX  - HEAT INDEX.         WCI  - WIND CHILL INDEX.
$


USA.gov is the U.S. government's official web portal to all federal, state and local government web resources and services.